TimeCST,TemperatureF,Dew PointF,Humidity,Sea Level PressureIn,VisibilityMPH,Wind Direction,Wind SpeedMPH,Gust SpeedMPH,PrecipitationIn,Events,Conditions,WindDirDegrees,DateUTC
12:15 AM,10.4,8.6,92,30.31,10.0,SSE,12.7,-,N/A,,Clear,160,2012-12-05 06:15:00
12:35 AM,10.4,10.4,100,30.31,10.0,SSE,12.7,-,N/A,,Clear,160,2012-12-05 06:35:00
12:55 AM,10.4,10.4,100,30.29,10.0,SSE,13.8,-,N/A,,Clear,160,2012-12-05 06:55:00
1:15 AM,10.4,10.4,100,30.28,10.0,SSE,12.7,-,N/A,,Partly Cloudy,160,2012-12-05 07:15:00
1:55 AM,12.2,10.4,92,30.26,10.0,South,12.7,-,N/A,,Overcast,170,2012-12-05 07:55:00
2:15 AM,12.2,10.4,92,30.25,10.0,SSE,15.0,-,N/A,,Overcast,160,2012-12-05 08:15:00
2:35 AM,12.2,12.2,100,30.24,10.0,SSE,15.0,-,N/A,,Overcast,160,2012-12-05 08:35:00
2:55 AM,12.2,12.2,100,30.24,10.0,SSE,15.0,-,N/A,,Overcast,160,2012-12-05 08:55:00
3:15 AM,14.0,12.2,93,30.23,10.0,SSE,15.0,-,N/A,,Overcast,160,2012-12-05 09:15:00
3:35 AM,14.0,12.2,93,30.22,10.0,SSE,17.3,-,N/A,,Overcast,160,2012-12-05 09:35:00
3:55 AM,14.0,12.2,93,30.20,10.0,SSE,16.1,-,N/A,,Overcast,160,2012-12-05 09:55:00
4:15 AM,14.0,14.0,100,30.18,10.0,SSE,16.1,-,N/A,,Overcast,160,2012-12-05 10:15:00
4:35 AM,14.0,14.0,100,30.16,10.0,SSE,18.4,-,N/A,,Overcast,160,2012-12-05 10:35:00
4:55 AM,14.0,14.0,100,30.14,10.0,SSE,20.7,25.3,N/A,,Mostly Cloudy,160,2012-12-05 10:55:00
5:15 AM,14.0,14.0,100,30.13,10.0,SSE,19.6,24.2,N/A,,Clear,160,2012-12-05 11:15:00
5:35 AM,14.0,14.0,100,30.11,10.0,SSE,21.9,26.5,N/A,,Clear,160,2012-12-05 11:35:00
5:55 AM,14.0,14.0,100,30.10,10.0,SSE,17.3,24.2,N/A,,Clear,160,2012-12-05 11:55:00
6:15 AM,15.8,14.0,93,30.11,10.0,South,17.3,-,N/A,,Clear,170,2012-12-05 12:15:00
6:35 AM,15.8,14.0,93,30.11,10.0,SSE,17.3,-,N/A,,Clear,160,2012-12-05 12:35:00
6:55 AM,15.8,14.0,93,30.09,10.0,SSE,20.7,24.2,N/A,,Clear,160,2012-12-05 12:55:00
8:35 AM,15.8,14.0,93,30.02,10.0,SSE,20.7,29.9,N/A,,Clear,160,2012-12-05 14:35:00
8:55 AM,15.8,14.0,93,30.00,10.0,SSE,23.0,28.8,N/A,,Clear,160,2012-12-05 14:55:00
9:15 AM,15.8,14.0,93,29.98,10.0,SSE,21.9,28.8,N/A,,Clear,160,2012-12-05 15:15:00
9:35 AM,17.6,15.8,93,29.98,10.0,SSE,19.6,25.3,N/A,,Clear,160,2012-12-05 15:35:00
9:55 AM,19.4,15.8,86,29.97,10.0,South,24.2,31.1,N/A,,Clear,170,2012-12-05 15:55:00
10:15 AM,19.4,15.8,86,29.95,10.0,SSE,24.2,31.1,N/A,,Clear,160,2012-12-05 16:15:00
10:35 AM,21.2,15.8,80,29.94,10.0,South,24.2,31.1,N/A,,Clear,170,2012-12-05 16:35:00
10:55 AM,23.0,17.6,80,29.93,10.0,South,24.2,32.2,N/A,,Clear,180,2012-12-05 16:55:00
11:15 AM,23.0,17.6,80,29.90,10.0,South,24.2,29.9,N/A,,Clear,170,2012-12-05 17:15:00
11:35 AM,24.8,17.6,74,29.88,10.0,SSE,25.3,29.9,N/A,,Clear,160,2012-12-05 17:35:00
11:55 AM,24.8,19.4,80,29.85,10.0,South,27.6,32.2,N/A,,Clear,170,2012-12-05 17:55:00
12:15 PM,24.8,19.4,80,29.82,10.0,SSE,29.9,36.8,N/A,,Clear,160,2012-12-05 18:15:00
12:35 PM,26.6,19.4,74,29.82,10.0,South,23.0,28.8,N/A,,Partly Cloudy,170,2012-12-05 18:35:00
1:15 PM,26.6,19.4,74,29.80,10.0,South,24.2,29.9,N/A,,Mostly Cloudy,170,2012-12-05 19:15:00
1:35 PM,26.6,19.4,74,29.78,10.0,South,21.9,-,N/A,,Mostly Cloudy,170,2012-12-05 19:35:00
1:55 PM,28.4,19.4,69,29.76,10.0,South,24.2,31.1,N/A,,Partly Cloudy,170,2012-12-05 19:55:00
2:15 PM,28.4,19.4,69,29.73,10.0,South,23.0,34.5,N/A,,Clear,170,2012-12-05 20:15:00
2:35 PM,28.4,19.4,69,29.74,10.0,South,20.7,33.4,N/A,,Clear,170,2012-12-05 20:35:00
2:55 PM,28.4,21.2,74,29.72,10.0,South,25.3,-,N/A,,Clear,170,2012-12-05 20:55:00
3:15 PM,28.4,21.2,74,29.70,10.0,South,24.2,29.9,N/A,,Clear,180,2012-12-05 21:15:00
3:35 PM,28.4,21.2,74,29.68,10.0,South,23.0,33.4,N/A,,Clear,170,2012-12-05 21:35:00
3:55 PM,28.4,19.4,69,29.70,10.0,South,15.0,27.6,N/A,,Clear,180,2012-12-05 21:55:00
4:15 PM,28.4,21.2,74,29.68,10.0,South,17.3,20.7,N/A,,Clear,170,2012-12-05 22:15:00
4:35 PM,28.4,21.2,74,29.66,10.0,South,23.0,29.9,N/A,,Mostly Cloudy,170,2012-12-05 22:35:00
4:55 PM,28.4,21.2,74,29.64,10.0,South,23.0,31.1,N/A,,Overcast,170,2012-12-05 22:55:00
5:15 PM,28.4,21.2,74,29.64,10.0,South,17.3,24.2,N/A,,Overcast,180,2012-12-05 23:15:00
5:35 PM,28.4,23.0,80,29.62,10.0,South,23.0,28.8,N/A,,Overcast,170,2012-12-05 23:35:00
5:55 PM,30.2,23.0,75,29.60,10.0,South,24.2,31.1,N/A,,Overcast,170,2012-12-05 23:55:00
6:15 PM,30.2,23.0,75,29.59,10.0,South,24.2,34.5,N/A,,Overcast,170,2012-12-06 00:15:00
6:35 PM,30.2,23.0,75,29.59,10.0,South,16.1,32.2,N/A,,Overcast,170,2012-12-06 00:35:00
6:55 PM,30.2,23.0,75,29.58,10.0,SSW,10.4,18.4,N/A,,Overcast,210,2012-12-06 00:55:00
7:15 PM,32.0,23.0,69,29.61,10.0,South,15.0,19.6,N/A,,Overcast,190,2012-12-06 01:15:00
7:35 PM,32.0,23.0,69,29.60,10.0,South,12.7,-,N/A,,Overcast,180,2012-12-06 01:35:00
7:55 PM,32.0,24.8,75,29.58,10.0,South,16.1,-,N/A,,Overcast,170,2012-12-06 01:55:00
8:15 PM,32.0,24.8,75,29.58,10.0,South,13.8,19.6,N/A,,Mostly Cloudy,180,2012-12-06 02:15:00
8:35 PM,32.0,24.8,75,29.57,10.0,South,24.2,27.6,N/A,,Partly Cloudy,190,2012-12-06 02:35:00
8:55 PM,32.0,24.8,75,29.56,10.0,SSW,20.7,28.8,N/A,,Partly Cloudy,200,2012-12-06 02:55:00
9:15 PM,33.8,24.8,70,29.55,10.0,South,17.3,25.3,N/A,,Mostly Cloudy,180,2012-12-06 03:15:00
9:35 PM,33.8,26.6,75,29.54,10.0,South,11.5,-,N/A,,Mostly Cloudy,170,2012-12-06 03:35:00
9:55 PM,32.0,26.6,80,29.53,10.0,South,11.5,-,N/A,,Scattered Clouds,180,2012-12-06 03:55:00
10:15 PM,33.8,26.6,75,29.52,10.0,SSE,9.2,-,N/A,,Mostly Cloudy,150,2012-12-06 04:15:00
10:35 PM,37.4,28.4,70,29.51,10.0,SW,13.8,24.2,N/A,,Mostly Cloudy,220,2012-12-06 04:35:00
10:55 PM,37.4,28.4,70,29.50,10.0,SW,20.7,27.6,N/A,,Clear,220,2012-12-06 04:55:00
11:15 PM,37.4,28.4,70,29.49,10.0,SW,20.7,27.6,N/A,,Clear,230,2012-12-06 05:15:00
11:35 PM,37.4,30.2,75,29.49,10.0,SW,20.7,34.5,N/A,,Clear,230,2012-12-06 05:35:00
11:55 PM,37.4,30.2,75,29.49,10.0,WSW,21.9,38.0,N/A,,Clear,240,2012-12-06 05:55:00